K0BL Weather Reports


Display with metric or nautical units.
time (UTC)temp
F
wind
direction
speed
MPH
gust
MPH
rain 1hr
in
rain 24hr
in
rain mn
in
humidity
%
barometer
mb
20260506003042 56 46 2.0 3.0 0.00 0.00 0.00 54 1007.6
20260506002543 56 219 2.0 3.0 0.00 0.00 0.00 54 1007.7
20260506001537 57 225 2.0 4.0 0.00 0.00 0.00 52 1007.7
20260506001037 57 216 2.0 3.0 0.00 0.00 0.00 52 1007.8
20260506000534 57 211 2.0 3.0 0.00 0.00 0.00 53 1007.8
20260505235534 57 46 1.0 2.0 0.00 0.00 0.00 50 1007.8
20260505235034 57 47 2.0 5.0 0.00 0.00 0.00 51 1007.7
20260505234534 57 43 2.0 5.0 0.00 0.00 0.00 49 1007.7
20260505234035 57 328 3.0 5.0 0.00 0.00 0.00 50 1007.7
20260505233534 57 357 3.0 5.0 0.00 0.00 0.00 50 1007.7
20260505233034 57 196 3.0 6.0 0.00 0.00 0.00 49 1007.8
20260505232534 57 234 4.0 6.0 0.00 0.00 0.00 48 1007.6
20260505232032 58 204 2.0 6.0 0.00 0.00 0.00 48 1007.7
20260505231532 58 43 2.0 3.0 0.00 0.00 0.00 48 1007.7
20260505231032 58 116 1.0 3.0 0.00 0.00 0.00 47 1007.7
20260505230532 58 213 2.0 4.0 0.00 0.00 0.00 48 1007.7
20260505225532 58 138 2.0 3.0 0.00 0.00 0.00 48 1007.8
20260505225032 58 53 2.0 3.0 0.00 0.00 0.00 46 1007.8
20260505224023 58 215 2.0 3.0 0.00 0.00 0.00 47 1007.8
20260505223523 58 244 1.0 3.0 0.00 0.00 0.00 47 1007.8
20260505222523 58 41 2.0 3.0 0.00 0.00 0.00 47 1007.7
20260505221518 0 38 2.0 4.0 0.00 0.00 0.00
20260505221016 57 55 2.0 4.0 0.00 0.00 0.00 48 1007.8
20260505220453 57 51 2.0 10.0 0.00 0.00 0.00 48 1007.8
20260505215954 57 79 2.0 10.0 0.00 0.00 0.00 48 1007.8
20260505215447 57 168 2.0 8.0 0.00 0.00 0.00 47 1007.9
20260505214948 58 161 3.0 7.0 0.00 0.00 0.00 47 1008.0
20260505214445 57 198 3.0 7.0 0.00 0.00 0.00 49 1008.0
20260505213945 57 233 4.0 8.0 0.00 0.00 0.00 46 1008.1
20260505213445 57 242 4.0 9.0 0.00 0.00 0.00 47 1008.1
20260505212944 57 241 4.0 9.0 0.00 0.00 0.00 46 1008.2
20260505212445 57 238 4.0 9.0 0.00 0.00 0.00 47 1008.3
20260505211945 57 229 4.0 10.0 0.00 0.00 0.00 46 1008.4
20260505210945 56 239 4.0 9.0 0.00 0.00 0.00 46 1008.4
20260505210445 56 239 4.0 10.0 0.00 0.00 0.00 46 1008.5
20260505205946 56 241 4.0 10.0 0.00 0.00 0.00 46 1008.5
20260505205445 56 237 4.0 9.0 0.00 0.00 0.00 47 1008.5
20260505204945 56 241 4.0 9.0 0.00 0.00 0.00 46 1008.7
20260505203943 56 245 4.0 9.0 0.00 0.00 0.00 46 1008.7
20260505203440 56 245 4.0 8.0 0.00 0.00 0.00 46 1008.8
20260505202440 56 239 4.0 9.0 0.00 0.00 0.00 46 1008.9
20260505201937 56 240 4.0 9.0 0.00 0.00 0.00 47 1008.9
20260505201437 56 243 4.0 10.0 0.00 0.00 0.00 46 1008.9
20260505200936 56 243 4.0 10.0 0.00 0.00 0.00 47 1009.0
20260505200437 56 233 4.0 9.0 0.00 0.00 0.00 46 1009.0
20260505195437 57 249 4.0 9.0 0.00 0.00 0.00 45 1009.0
20260505194935 57 250 4.0 13.0 0.00 0.00 0.00 46 1008.9
20260505194436 57 234 4.0 13.0 0.00 0.00 0.00 46 1009.0
20260505193936 56 37 4.0 9.0 0.00 0.00 0.00 46 1009.1
20260505193434 56 244 4.0 7.0 0.00 0.00 0.00 47 1009.1
20260505192934 56 235 4.0 7.0 0.00 0.00 0.00 47 1009.2
20260505192436 56 252 4.0 7.0 0.00 0.00 0.00 47 1009.2
20260505191935 56 283 4.0 7.0 0.00 0.00 0.00 46 1009.4
20260505191432 56 243 4.0 7.0 0.00 0.00 0.00 46 1009.4
20260505190932 56 255 4.0 7.0 0.00 0.00 0.00 48 1009.4
20260505190430 55 254 4.0 6.0 0.00 0.00 0.00 47 1009.4
20260505185929 56 58 4.0 6.0 0.00 0.00 0.00 47 1009.4
20260505185429 56 239 3.0 8.0 0.00 0.00 0.00 47 1009.4
20260505184929 56 258 4.0 8.0 0.00 0.00 0.00 46 1009.4
20260505184429 56 237 4.0 7.0 0.00 0.00 0.00 46 1009.5
20260505183929 56 255 4.0 7.0 0.00 0.00 0.00 47 1009.5
20260505183429 56 244 4.0 7.0 0.00 0.00 0.00 47 1009.8
20260505182929 56 295 4.0 7.0 0.00 0.00 0.00 47 1009.8
20260505182429 55 20 3.0 6.0 0.00 0.00 0.00 48 1009.6
20260505181929 55 2 3.0 5.0 0.00 0.00 0.00 48 1009.5
20260505181430 55 250 3.0 8.0 0.00 0.00 0.00 49 1009.5
20260505180929 55 296 3.0 8.0 0.00 0.00 0.00 50 1009.6
20260505180427 56 340 2.0 7.0 0.00 0.00 0.00 48 1009.5
20260505175927 55 257 2.0 7.0 0.00 0.00 0.00 48 1009.6
20260505174927 55 269 3.0 9.0 0.00 0.00 0.00 48 1010.0
20260505174427 55 280 2.0 5.0 0.00 0.00 0.00 49 1010.0
20260505173926 55 278 3.0 7.0 0.00 0.00 0.00 49 1009.8
20260505173427 55 293 3.0 7.0 0.00 0.00 0.00 49 1009.8
20260505172927 55 224 3.0 7.0 0.00 0.00 0.00 49 1010.0
20260505172427 55 285 2.0 7.0 0.00 0.00 0.00 49 1010.0
20260505171427 55 80 3.0 6.0 0.00 0.00 0.00 49 1010.1
20260505170928 55 264 3.0 6.0 0.00 0.00 0.00 48 1010.1
20260505170429 55 343 2.0 6.0 0.00 0.00 0.00 48 1010.3
20260505165925 55 71 3.0 7.0 0.00 0.00 0.00 49 1010.2
20260505165424 55 264 3.0 7.0 0.00 0.00 0.00 49 1010.1
20260505164925 54 49 2.0 4.0 0.00 0.00 0.00 49 1010.0
20260505164425 54 228 3.0 7.0 0.00 0.00 0.00 49 1010.0
20260505163422 55 287 3.0 6.0 0.00 0.00 0.00 48 1009.9
20260505162921 55 293 3.0 6.0 0.00 0.00 0.00 47 1009.9
20260505162419 56 51 2.0 5.0 0.00 0.00 0.00 47 1009.8
20260505160919 55 297 2.0 7.0 0.00 0.00 0.00 48 1009.9
20260505153235 53 46 3.0 5.0 0.00 0.00 0.00 55 1009.5
20260505152735 53 252 3.0 5.0 0.00 0.00 0.00 54 1009.5
20260505152235 52 271 2.0 5.0 0.00 0.00 0.00 54 1009.5
20260505151720 52 276 2.0 4.0 0.00 0.00 0.00 54 1009.5
20260505151147 52 260 3.0 4.0 0.00 0.00 0.00 55 1009.4
20260505150647 52 268 2.0 4.0 0.00 0.00 0.00 54 1009.5
20260505150140 52 159 2.0 4.0 0.00 0.00 0.00 53 1009.5
20260505140636 52 224 2.0 5.0 0.00 0.00 0.00 58 1008.7
20260505140136 52 256 2.0 6.0 0.00 0.00 0.00 56 1008.6
20260505130127 50 57 2.0 4.0 0.00 0.00 0.00 67 1007.9
20260505124628 49 67 2.0 4.0 0.00 0.00 0.00 69 1007.9
20260505124128 49 74 2.0 4.0 0.00 0.00 0.00 68 1007.9
20260505123627 48 72 1.0 3.0 0.00 0.00 0.00 70 1008.1
20260505123128 48 84 1.0 2.0 0.00 0.00 0.00 72 1008.4
20260505122628 48 104 1.0 3.0 0.00 0.00 0.00 72 1008.6
20260505122125 48 0 1.0 3.0 0.00 0.00 0.00 71 1008.7
20260505121625 48 0 1.0 2.0 0.00 0.00 0.00 74 1008.7
20260505121125 48 162 1.0 3.0 0.00 0.00 0.00 74 1008.7
20260505120625 48 0 0.0 3.0 0.00 0.00 0.00 75 1008.8
20260505120123 48 193 0.0 3.0 0.00 0.00 0.00 77 1008.9
20260505115623 47 184 0.0 2.0 0.00 0.00 0.00 77 1008.8
20260505115119 47 83 0.0 2.0 0.00 0.00 0.00 79 1008.9
20260505114619 47 0 1.0 2.0 0.00 0.00 0.00 79 1009.0
20260505114117 48 260 1.0 2.0 0.00 0.00 0.00 77 1009.0
20260505113117 48 218 1.0 2.0 0.00 0.00 0.00 73 1008.7
20260505112617 47 211 1.0 2.0 0.00 0.00 0.00 71 1008.7
20260505112118 47 188 0.0 2.0 0.00 0.00 0.00 72 1008.7
20260505111117 48 78 0.0 2.0 0.00 0.00 0.00 76 1008.9
20260505102107 49 97 1.0 3.0 0.00 0.00 0.00 67 1008.1
20260505101604 49 338 1.0 3.0 0.00 0.00 0.00 66 1008.0
20260505101104 49 277 1.0 3.0 0.00 0.00 0.00 63 1007.8
20260505100604 50 305 1.0 3.0 0.00 0.00 0.00 64 1007.4
20260505100048 50 91 1.0 3.0 0.00 0.00 0.00 64 1007.1
20260505095544 50 50 1.0 4.0 0.00 0.00 0.00 64 1006.9
20260505095042 50 27 1.0 5.0 0.00 0.00 0.00 61 1006.8
20260505094543 51 68 1.0 5.0 0.00 0.00 0.00 60 1006.9
20260505094042 51 45 2.0 4.0 0.00 0.00 0.00 60 1006.8
20260505093535 51 277 1.0 3.0 0.00 0.00 0.00 60 1006.9
20260505091443 51 8 2.0 4.0 0.00 0.00 0.00 60 1006.6
20260505090932 51 264 2.0 5.0 0.00 0.00 0.00 60 1006.6
20260505085309 52 51 2.0 4.0 0.00 0.00 0.00 55 1006.8
20260505084752 52 49 2.0 4.0 0.00 0.00 0.00 55 1006.8
20260505084240 52 275 2.0 4.0 0.00 0.00 0.00 55 1006.3
20260505083737 52 283 2.0 3.0 0.00 0.00 0.00 55 1006.4
20260505083239 52 351 2.0 3.0 0.00 0.00 0.00 54 1006.4
20260505082737 52 243 1.0 3.0 0.00 0.00 0.00 54 1006.6
20260505082232 52 223 2.0 4.0 0.00 0.00 0.00 55 1006.3
20260505081723 52 235 1.0 4.0 0.00 0.00 0.00 54 1005.9
20260505081223 52 0 1.0 3.0 0.00 0.00 0.00 54 1005.6
20260505080721 52 254 1.0 3.0 0.00 0.00 0.00 53 1006.1
20260505080212 53 252 1.0 3.0 0.00 0.00 0.00 53 1006.1
20260505075711 53 0 1.0 3.0 0.00 0.00 0.00 52 1006.5
20260505075202 53 0 2.0 6.0 0.00 0.00 0.00 52 1006.7
20260505074159 53 332 2.0 4.0 0.00 0.00 0.00 51 1006.8
20260505073659 53 283 2.0 4.0 0.00 0.00 0.00 51 1006.8
20260505073153 53 53 1.0 3.0 0.00 0.00 0.00 52 1006.7
20260505072153 53 245 3.0 10.0 0.00 0.00 0.00 52 1006.7
20260505071650 53 326 2.0 5.0 0.00 0.00 0.00 52 1006.5
20260505071146 53 30 2.0 4.0 0.00 0.00 0.00 53 1006.2
20260505065646 53 0 2.0 6.0 0.00 0.00 0.00 53 1005.4
20260505065145 53 32 2.0 6.0 0.00 0.00 0.00 52 1005.5
20260505064645 53 316 3.0 6.0 0.00 0.00 0.00 52 1005.6
20260505063145 54 316 3.0 8.0 0.00 0.00 0.00 51 1005.2
20260505062645 54 306 4.0 8.0 0.00 0.00 0.00 51 1005.1
20260505062145 54 288 4.0 10.0 0.00 0.00 0.00 50 1005.1
20260505061645 54 293 4.0 10.0 0.00 0.00 0.00 50 1004.8
20260505061145 55 312 4.0 9.0 0.00 0.00 0.00 50 1004.6
20260505060145 55 3 4.0 8.0 0.00 0.00 0.00 50 1004.0
20260505055643 55 313 3.0 9.0 0.00 0.00 0.00 50 1004.0
20260505055139 55 338 4.0 9.0 0.00 0.00 0.00 51 1003.7
20260505054637 56 316 5.0 9.0 0.00 0.00 0.00 50 1004.1
20260505054137 56 276 5.0 9.0 0.00 0.00 0.00 50 1004.0
20260505053136 56 288 5.0 9.0 0.00 0.00 0.00 50 1003.9
20260505051637 57 282 5.0 10.0 0.00 0.00 0.00 49 1003.6
20260505051137 57 275 5.0 10.0 0.00 0.00 0.00 49 1003.5
20260505050138 57 241 5.0 10.0 0.00 0.00 0.00 48 1003.3
20260505041129 59 292 8.0 13.0 0.00 0.00 0.00 45 1003.6
20260505040629 60 282 9.0 13.0 0.00 0.00 0.00 45 1003.7
20260505040129 60 291 9.0 17.0 0.00 0.00 0.00 44 1003.7
20260505035630 60 283 11.0 17.0 0.00 0.00 0.00 44 1003.7
20260505035129 60 255 12.0 17.0 0.00 0.00 0.00 43 1003.6
20260505034129 61 236 8.0 13.0 0.00 0.00 0.00 43 1003.4
20260505033627 61 33 7.0 13.0 0.00 0.00 0.00 42 1003.5
20260505033127 62 299 7.0 22.0 0.00 0.00 0.00 42 1003.4
20260505032124 62 256 6.0 15.0 0.00 0.00 0.00 41 1003.2
20260505031621 63 286 5.0 13.0 0.00 0.00 0.00 40 1002.9
20260505031121 63 350 5.0 8.0 0.00 0.00 0.00 40 1002.7
20260505030121 64 1 5.0 9.0 0.00 0.00 0.00 40 1002.6
20260505025621 64 353 5.0 12.0 0.00 0.00 0.00 39 1002.5
20260505025121 64 276 5.0 12.0 0.00 0.00 0.00 40 1002.5
20260505024621 64 298 4.0 9.0 0.00 0.00 0.00 40 1002.5
20260505024126 65 301 4.0 9.0 0.00 0.00 0.00 41 1002.3
20260505023621 65 299 4.0 9.0 0.00 0.00 0.00 42 1002.2
20260505023121 66 317 4.0 9.0 0.00 0.00 0.00 41 1002.0
20260505022621 66 320 4.0 9.0 0.00 0.00 0.00 41 1001.9
20260505022119 66 303 4.0 10.0 0.00 0.00 0.00 41 1001.8
20260505021618 67 61 4.0 10.0 0.00 0.00 0.00 40 1001.6
20260505021116 67 327 4.0 8.0 0.00 0.00 0.00 40 1001.4
20260505020616 67 333 4.0 8.0 0.00 0.00 0.00 40 1001.2
20260505020116 68 318 4.0 8.0 0.00 0.00 0.00 40 1001.1
20260505015616 68 346 3.0 8.0 0.00 0.00 0.00 39 1000.9
20260505015112 68 313 4.0 10.0 0.00 0.00 0.00 39 1000.8
20260505014613 69 298 4.0 10.0 0.00 0.00 0.00 39 1000.7
20260505014113 69 304 4.0 9.0 0.00 0.00 0.00 39 1000.6
20260505013613 70 330 4.0 9.0 0.00 0.00 0.00 39 1000.3
20260505013113 70 307 4.0 11.0 0.00 0.00 0.00 39 1000.1
20260505012613 71 49 4.0 11.0 0.00 0.00 0.00 38 999.9
20260505012113 71 322 3.0 11.0 0.00 0.00 0.00 38 999.8
20260505011611 71 304 2.0 8.0 0.00 0.00 0.00 39 999.6
20260505010607 73 337 4.0 7.0 0.00 0.00 0.00 37 999.2
20260505010105 73 311 4.0 9.0 0.00 0.00 0.00 37 999.2
20260505005055 74 53 4.0 11.0 0.00 0.00 0.00 36 998.7
20260505004017 74 331 5.0 11.0 0.00 0.00 0.00 37 998.5